STARLINK-11471, 62225

Orbit data source: Space-Track

STARLINK-11471, 62225 is a payload satellite owned by SpaceX/Seattle (US) in LEO that was launched on Thu, 05 Dec 2024 UTC via an FALCON 9 launch vehicle from the Air Force Western Test Range (AFWTR). Payload-class satellites include a variety of spacecraft equipped with specific instruments for various scientific and technological missions. These include communications satellites like Starlink; space stations such as the ISS; scientific satellites like the Hubble; Earth observation satellites from companies like Planet Labs, Umbra, and HawkEye 360; GPS; miniature CubeSats for education and research; and military/defense satellites.

Loading next visibility...
Identifier
62225, 2024-231H
Orbit
LEO
Country
Flag of USUS
Related business
Manufacturer
SpaceX/Seattle
Mission
Operational spacecraft
Bus & Motor
STARLINK V2MD, Unknown motor
Mass
960 kg wet, ~910 kg dry
Launch date (UTC)
2024-12-05 (1 year ago)
Launch vehicle
FALCON 9
Launch site
Air Force Western Test Range (AFWTR)
Object type
Payload
Rocket body
Debris
Shape & HBR
Unknown shape, 18.1 m
Radar Cross Section
Large (>1 m²)

Expand to show TLE details & history
Last TLE update: 21 hours ago

TLE from 21 hours ago
0 STARLINK-11471
1 62225U 24231H   26033.22088228  .00212382  00000-0  17066-2 0  9995
2 62225  53.1564 275.9095 0000809 101.6072 258.5037 15.69805528 67848
Epoch: 2026-02-02T05:18Z
TLE epoch observation values (Epoch: 2026-02-02T05:18:04.228Z)
Latitude
-0.00003°
Longitude
63.97258°
Altitude
360.477 km
Speed
7.694 km/s
True Right ascension
18h 23m 38s
True Declination
0° 00' 00"
Sunlit
Object was in daylight at epoch
Visualization orbit readout
Latitude
Unknown
Longitude
Unknown
Altitude
Unknown
Speed
Unknown
Apparent Right ascension
Unknown
Apparent Declination
Unknown
Sunlit
N/A
Visualization observer readout
Local Sidereal Time
03:47:52
Azimuth
Unknown
Elevation
Unknown
Doppler factor
Unknown
Orbital elements
Apogee altitude
360.26 km
Perigee altitude
359.17 km
Semi-major axis
6,737.852 km
Eccentricity
0.00008
Inclination
53.1564°
RAAN
275.9095°
Arg. of periapsis
101.6072°
True anomaly
258.49462°
Mean anomaly
258.5037°
Eccentric anomaly
258.49916°
Mean motion
3.92429 °/min
Orbital period
91.74 mins
BSTAR
0.0017066
Loading maneuver chart data...
Computing Atmospheric mass density...
Loading historical data...
Loading historical data...
Loading historical data...
Loading historical data...
Loading historical data...
Loading historical data...
Loading historical data...

Documentation

Showing up to 5 results
|